Elyria, OH

12:02 PM EST on December 10, 2016 (GMT -0500)
Lorain County Regional

Weather History for KLPR - November, 2013

Change the Weather History Date:

Saturday, November 16, 2013

  Actual Average (KCLE) Record (KCLE)
Temperature  
Mean Temperature 50 °F -  
Max Temperature 60 °F 48 °F 72 °F (1931)
Min Temperature 39 °F 31 °F 12 °F (1933)
Degree Days  
Heating Degree Days 16    
Moisture  
Dew Point 43 °F    
Average Humidity 72    
Maximum Humidity 77    
Minimum Humidity 62    
Precipitation  
Precipitation 0.00 in - - ()
Sea Level Pressure  
Sea Level Pressure 30.07 in    
Wind  
Wind Speed 9 mph (South)    
Max Wind Speed 18 mph    
Max Gust Speed 26 mph    
Visibility 10 miles    
Events      
Averages and records for this station are not official NWS values.
T = Trace of Precipitation, MM = Missing Value Source: NWS Daily Summary

Daily Weather History Graph

Daily Weather History Graph

Search for Another Location

Airport or City:

Trip Planner

Search our weather history database for the weather conditions in past years. The results will help you decide how hot, cold, wet, or windy it might be!

Date:

Astronomy

Nov. 16, 2013 Rise Set
Actual Time 7:18 AM EST 5:08 PM EST
Civil Twilight 6:48 AM EST 5:37 PM EST
Nautical Twilight 6:15 AM EST 6:11 PM EST
Astronomical Twilight 5:42 AM EST 6:44 PM EST
Moon 4:43 PM EST (11/16) 6:12 AM EST (11/16)
Length of Visible Light 10h 49m
Length of Day
9h 49m
Waxing Gibbous, 99% of the Moon is Illuminated
Nov 16
Waxing Gibbous
Nov 17
Full
Nov 25
Last Quarter
Dec 2
New
Dec 9
First Quarter

Hourly Weather History & Observations

Time (EST) Temp. Windchill Dew Point Humidity Pressure Visibility Wind Dir Wind Speed Gust Speed Precip Events Conditions
12:53 AM 43.0 °F 39.5 °F 30.9 °F 62% 30.14 in 10.0 mi SSW 5.8 mph - N/A   Clear
1:53 AM 39.0 °F 34.8 °F 30.0 °F 70% 30.14 in 10.0 mi South 5.8 mph - N/A   Clear
2:53 AM 41.0 °F 35.8 °F 32.0 °F 70% 30.14 in 10.0 mi South 8.1 mph - N/A   Clear
3:53 AM 39.9 °F 35.8 °F 33.1 °F 77% 30.14 in 10.0 mi South 5.8 mph - N/A   Clear
4:53 AM 41.0 °F 35.2 °F 34.0 °F 76% 30.15 in 10.0 mi South 9.2 mph - N/A   Clear
5:53 AM 42.1 °F 36.1 °F 34.0 °F 73% 30.14 in 10.0 mi South 10.4 mph - N/A   Clear
6:53 AM 43.0 °F 38.8 °F 36.0 °F 76% 30.17 in 10.0 mi South 6.9 mph - N/A   Overcast
7:53 AM 44.1 °F 38.6 °F 37.0 °F 76% 30.17 in 10.0 mi South 10.4 mph - N/A   Clear
8:53 AM 46.9 °F - 39.0 °F 74% 30.17 in 10.0 mi South 10.4 mph - N/A   Overcast
9:53 AM 50.0 °F - 42.1 °F 74% 30.16 in 10.0 mi South 10.4 mph - N/A   Overcast
10:53 AM 52.0 °F - 43.0 °F 71% 30.15 in 10.0 mi South 12.7 mph - N/A   Overcast
11:53 AM 54.0 °F - 45.0 °F 72% 30.12 in 10.0 mi South 11.5 mph - N/A   Overcast
12:53 PM 57.9 °F - 46.9 °F 67% 30.08 in 10.0 mi South 12.7 mph - N/A   Scattered Clouds
1:53 PM 60.1 °F - 46.9 °F 62% 30.06 in 10.0 mi South 17.3 mph 25.3 mph N/A   Partly Cloudy
2:53 PM 59.0 °F - 48.0 °F 67% 30.04 in 10.0 mi South 13.8 mph - N/A   Clear
3:53 PM 57.9 °F - 48.0 °F 70% 30.03 in 10.0 mi South 18.4 mph 26.5 mph N/A   Clear
4:53 PM 57.0 °F - 48.0 °F 72% 30.01 in 10.0 mi South 15.0 mph 18.4 mph N/A   Clear
5:53 PM 55.9 °F - 46.9 °F 72% 30.02 in 10.0 mi South 6.9 mph - N/A   Clear
6:45 PM 55.4 °F - 48.2 °F 77% 30.02 in 10.0 mi South 8.1 mph - N/A   Mostly Cloudy
6:53 PM 55.9 °F - 48.0 °F 75% 30.03 in 10.0 mi South 6.9 mph - N/A   Mostly Cloudy
7:53 PM 55.0 °F - 48.0 °F 77% 29.99 in 10.0 mi South 9.2 mph - N/A   Partly Cloudy
8:53 PM 55.9 °F - 48.9 °F 77% 29.98 in 10.0 mi South 12.7 mph - N/A   Clear
9:53 PM 57.0 °F - 48.9 °F 74% 29.94 in 10.0 mi South 15.0 mph - N/A   Clear
10:53 PM 57.9 °F - 50.0 °F 75% 29.92 in 10.0 mi South 17.3 mph - N/A   Partly Cloudy
11:53 PM 57.9 °F - 50.0 °F 75% 29.90 in 10.0 mi South 13.8 mph - N/A   Scattered Clouds